Regional Weather Roundup
Issued by NWS

Current Version | Previous Version | Text Only | Print | Product List | Glossary Off
Versions: 1 2 3 4 5 6 7 8 9 10 11 12 13 14 15 16 17 18 19 20 21 22 23 24 25 26 27 28 29 30 31 32 33 34 35 36 37 38 39 40 41 42 43 44 45 46 47 48 49 50

000
ASUS44 KMEG 190910
RWRTN
TENNESSEE HOURLY STATE WEATHER ROUNDUP
NATIONAL WEATHER SERVICE MEMPHIS TN
400 AM CDT SAT AUG 19 2017

TNZ002-004-019-021-049-052-054-088>092-191000-
WEST TENNESSEE

CITY           SKY/WX    TMP DP  RH WIND       PRES   REMARKS
MEMPHIS INTL   PTCLDY    76  71  85 SW5       29.97S
NWS MEMPHIS      N/A     74 N/A N/A MISG        N/A
JACKSON        CLOUDY    70  65  84 S6        29.96F
DYERSBURG      CLEAR     72  67  84 S5        29.94
SOMERVILLE     PTCLDY    72  70  94 CALM      29.96S
COVINGTON      PTCLDY    70  68  94 CALM      29.95F
UNION CITY     CLEAR     68  66  94 CALM      29.94R
BOLIVAR        CLEAR     70  68  94 CALM      29.96F
PARIS          CLEAR     66  64  94 CALM      29.94S
HUNTINGDON     CLEAR     66  66 100 CALM      29.94S
LEXINGTON      CLEAR     68  68 100 CALM      29.96F
SELMER         PTCLDY    66  64  94 S5        29.96
SAVANNAH       MOCLDY    66  66 100 CALM      29.96F
$$

TNZ008-025-027-028-033-062-065-066-191000-
NORTH MIDDLE TENNESSEE

CITY           SKY/WX    TMP DP  RH WIND       PRES   REMARKS
NASHVILLE      CLOUDY    69  66  90 S5        29.97F
PORTLAND       CLEAR     68  66  94 CALM      29.96F
CLARKSVILLE    CLOUDY    68  65  90 CALM      29.95F
SMYRNA         CLOUDY    67  66  97 SE6       29.98F
COOKEVILLE     FOG       63  63 100 CALM      30.01S VSB 1
GALLATIN       PTCLDY    68  66  94 CALM      29.99F
CROSSVILLE     CLEAR     61  60  97 CALM      30.06S
$$

TNZ061-075-076-078-094-096-097-191000-
SOUTH MIDDLE TENNESSEE

CITY           SKY/WX    TMP DP  RH WIND       PRES   REMARKS
FAYETTEVILLE   CLEAR     66  66 100 SE3       30.00F FOG
TULLAHOMA      CLEAR     63  61  94 CALM      30.02S
WINCHESTER     CLEAR     64  63  94 CALM      30.03R
MCMINNVILLE    MOCLDY    64  64 100 CALM      30.02S VSB 3/4
COLUMBIA       PTCLDY    66  66 100 CALM      29.97F
SHELBYVILLE    CLEAR     64  64 100 CALM      30.00F FOG
$$

TNZ017-018-042-046-047-191000-
NORTHEAST TENNESSEE

CITY           SKY/WX    TMP DP  RH WIND       PRES   REMARKS
TRI CITIES     FOG       65  65 100 CALM      30.02S VSB 1/4
ELIZABETHTON   CLEAR     64  64 100 CALM      30.03S FOG
$$

TNZ012-013-036-069-073-074-191000-
CENTRAL EAST TENNESSEE

CITY           SKY/WX    TMP DP  RH WIND       PRES   REMARKS
KNOXVILLE      CLEAR     69  65  86 CALM      30.00S
OAK RIDGE      CLEAR     66  63  90 CALM      30.03R
DOWNTOWN KNOXV PTCLDY    66  66 100 CALM      30.00S FOG
GATLINBURG     PTCLDY    64  64 100 CALM      30.01R
MORRISTOWN     CLEAR     66  64  94 CALM      30.01S
JACKSBORO      FOG       63  63 100 CALM      30.06S VSB 1/4
$$

TNZ083-085-099-191000-
SOUTHEAST TENNESSEE

CITY           SKY/WX    TMP DP  RH WIND       PRES   REMARKS
CHATTANOOGA    CLEAR     70  67  90 CALM      30.00F
DAYTON         MOSUNNY   64  64 100 CALM      30.00S
$$

SKY/WX REPORTED AS FAIR MEANS FEW OR NO CLOUDS BELOW
12 THOUSAND FEET.





USA.gov is the U.S. government's official web portal to all federal, state and local government web resources and services.